Presure
109 133 123 92 122 126 162 100 97 118 147 109 118 137 161 128 140 173 166 131 105 137 130 186 188 226 144 226 121 192 157 200 204 199 196 195 197 195 194 201 196 189 193 187 183
127 131 121 109 173 144 104 134 164 145 130 183 99 112 155 150 167 132 155 163 125 178 125 141 181 196 181 173 212 170 209 198 178 214 202 193 195 195 217 200 194 191 202 197 191
175 116 163 145 135 138 143 122 81 152 143 127 150 154 185 172 173 169 154 130 178 153 172 158 176 172 142 175 142 171 192 134 215 203 178 220 210 142 189 195 215 188 200 204 184
119 166 117 167 97 135 119 78 126 146 146 132 129 102 172 154 175 163 153 141 177 170 146 177 149 160 160 177 177 199 166 172 177 145 231 195 208 180 217 156 208 188 212 209 196
142 130 118 113 149 121 138 170 108 143 113 138 172 135 127 169 169 170 175 152 147 170 167 158 155 164 156 176 189 176 173 170 175 181 201 136 220 214 196 204 156 181 199 200 218
149 125 129 125 127 121 123 139 111 129 174 149 165 164 135 112 173 167 142 175 165 170 169 168 167 148 154 176 180 186 171 184 190 183 207 200 201 197 221 205 149 222 216 205 141
129 136 137 110 117 143 108 106 102 151 136 137 111 156 151 167 159 162 172 170 167 169 157 163 176 143 155 165 184 159 167 174 176 172 182 206 199 217 200 208 217 204 219 216 215
130 167 133 142 113 171 135 167 84 147 156 140 126 170 152 121 168 154 165 150 172 166 181 171 173 172 162 183 168 174 151 155 181 159 191 196 194 205 213 201 233 205 207 221 231
101 150 111 131 121 135 90 149 118 121 149 147 156 132 159 132 162 159 140 163 158 162 172 168 165 174 178 176 180 189 169 186 158 204 193 201 209 239 203 202 217 220 218 222 233
123 137 117 171 127 137 113 144 122 101 161 116 155 146 166 151 162 150 162 146 161 173 157 165 178 183 174 159 174 188 172 163 170 182 190 197 201 208 191 203 230 225 219 227 245
107 92 159 94 152 162 131 109 138 130 164 160 145 167 110 109 162 142 168 157 151 172 168 176 171 185 183 190 193 168 174 179 178 181 187 207 214 216 197 194 232 219 224 240 247
126 151 122 95 143 154 154 139 145 105 109 163 129 158 147 142 149 160 161 160 154 182 156 165 176 179 186 177 166 175 181 180 187 200 193 187 193 196 199 205 207 231 240 245 264
127 121 131 148 132 157 124 125 114 145 133 168 141 141 144 154 161 150 146 164 165 168 170 173 166 179 161 175 159 166 190 168 173 179 196 208 190 216 204 214 216 243 246 293 288
134 105 121 144 125 105 105 128 100 96 158 154 145 143 170 148 138 150 161 114 161 176 168 165 173 176 194 174 162 160 171 175 173 184 200 194 217 207 201 231 233 248 255 299 298
126 163 158 155 140 147 103 156 124 124 151 106 101 151 137 131 161 179 160 157 173 166 170 160 167 176 188 169 160 164 178 180 199 151 196 188 204 211 216 237 244 244 263 303 303
163 106 157 138 128 123 148 140 137 151 147 157 160 146 124 148 165 153 157 156 177 175 154 172 168 183 186 182 172 176 167 187 178 186 197 194 206 224 216 249 260 261 294 301 324
127 122 137 152 122 122 119 141 157 131 159 160 157 97 165 155 156 164 158 161 166 164 169 152 176 171 183 171 167 180 175 169 186 191 195 202 207 215 256 252 255 290 301 308 283
124 122 118 165 156 142 130 150 163 121 159 155 162 166 163 153 159 157 163 161 169 169 165 176 183 148 169 177 185 163 153 164 185 201 200 196 207 226 251 263 256 304 295 309 290
160 143 124 122 156 126 137 134 127 150 164 136 154 159 157 161 162 157 165 164 150 158 177 166 181 159 147 179 181 187 147 193 194 188 195 203 225 214 261 260 270 294 299 288 418
123 151 156 119 149 151 159 169 159 155 141 164 146 135 168 158 165 170 165 173 167 181 172 161 176 159 173 170 165 149 174 188 198 198 206 213 201 223 274 258 300 295 306 279 408
154 166 141 162 161 157 164 159 158 169 168 125 141 160 160 167 163 166 167 171 159 150 171 169 164 170 186 186 180 184 185 207 195 193 199 204 219 234 274 267 316 291 301 283 385
166 150 156 170 139 167 150 161 174 173 171 159 162 166 173 173 164 170 173 173 168 151 172 183 189 158 177 173 165 178 186 187 197 200 204 211 213 230 269 274 300 289 288 350 378
160 139 149 152 156 160 164 160 169 163 163 166 167 169 162 168 171 172 174 170 173 164 191 170 175 182 191 176 171 182 191 198 209 204 197 215 217 249 262 281 300 295 272 386 368
156 164 141 129 156 146 157 121 161 160 159 165 164 160 170 156 155 161 167 163 144 172 165 177 179 182 173 184 158 204 193 196 203 211 211 207 222 236 269 293 295 304 272 375 353
143 157 161 122 128 146 165 147 164 159 162 154 156 159 167 163 161 170 171 171 171 178 179 167 168 191 189 194 179 183 187 199 200 207 219 219 214 256 278 297 291 298 316 372 350
171 157 132 150 144 165 181 161 104 144 179 142 178 172 171 170 187 158 177 176 163 180 191 190 189 193 174 173 174 196 191 202 204 215 233 221 223 270 281 297 292 289 387 364 343
170 167 165 165 164 152 170 139 143 156 150 190 175 178 156 171 165 186 166 178 179 172 187 195 183 187 185 190 186 188 192 198 212 219 220 218 253 278 278 293 303 272 375 356 335
Wind_Speed
23 26 31 9 27 25 24 25 13 14 49 28 25 28 43 17 27 46 49 14 25 12 39 42 36 26 16 21 33 34 34 29 27 28 32 36 38 40 41 42 47 49 50 57 63
18 22 30 6 21 25 24 43 32 34 47 32 32 27 24 43 37 32 44 40 23 39 31 26 41 36 17 39 27 25 28 35 30 21 30 40 37 40 29 46 51 53 53 57 63
12 24 24 32 29 17 36 34 9 36 47 14 37 37 39 36 37 33 41 27 37 45 41 38 44 38 29 45 34 42 35 41 28 37 42 27 31 52 49 49 38 56 57 60 66
18 20 10 25 16 22 29 10 38 33 28 48 42 26 34 31 45 31 46 49 43 35 49 44 45 40 40 56 50 54 42 51 51 47 32 48 36 61 33 58 43 63 47 56 65
32 35 16 11 31 29 22 26 23 41 24 41 28 26 35 35 44 34 44 40 46 51 36 42 43 44 39 54 55 51 52 51 52 50 49 50 32 41 58 47 65 71 63 61 55
24 34 27 32 40 23 30 21 24 51 31 37 27 30 31 35 42 54 46 53 45 48 42 49 45 47 42 57 58 56 54 62 59 62 57 53 52 49 47 52 66 56 55 66 69
30 22 22 19 24 35 18 24 26 31 33 45 39 28 34 41 38 40 53 55 45 57 38 51 59 52 44 54 64 42 52 61 55 60 66 65 58 60 55 60 60 60 69 74 72
34 18 34 33 23 23 41 25 24 36 37 30 53 41 33 56 52 40 58 36 60 55 66 64 60 62 48 70 53 59 57 56 63 63 73 72 65 68 71 69 57 70 80 86 91
27 29 27 39 28 28 22 32 38 37 43 47 36 49 41 52 50 46 50 58 51 61 69 65 63 71 69 72 67 77 61 75 62 78 75 79 79 60 76 77 83 81 88 91 99
30 41 33 28 31 36 29 37 37 35 42 46 37 41 52 47 54 48 59 54 60 75 56 70 74 77 72 60 65 77 65 73 67 79 86 89 88 87 81 88 77 81 93 100 103
25 23 24 24 40 33 37 33 50 48 48 48 46 53 48 52 57 52 66 64 59 74 76 81 81 84 84 82 83 60 73 77 84 92 94 103 95 91 93 93 84 95 100 105 104
29 37 35 29 38 45 44 39 46 39 41 53 50 51 56 52 51 58 63 69 68 79 63 77 87 85 87 77 63 76 86 87 94 104 103 100 99 106 101 103 103 101 102 103 100
29 31 44 50 38 49 42 51 45 51 48 57 53 59 62 53 64 55 62 77 76 79 83 86 69 90 61 80 75 68 97 78 85 96 115 112 104 105 105 105 104 101 107 102 97
49 33 38 47 40 36 36 54 39 33 60 61 59 57 65 55 63 64 75 54 77 89 84 74 87 89 88 84 69 63 82 90 93 109 115 113 116 109 112 104 105 104 109 104 96
43 47 50 53 59 57 38 56 53 51 61 45 46 60 55 65 75 81 73 66 91 86 91 68 81 94 88 79 63 78 106 101 116 90 116 116 123 113 115 104 107 108 111 104 97
50 37 55 51 46 48 62 65 66 66 64 69 72 63 64 67 82 75 73 71 93 94 63 96 88 103 101 96 89 107 86 111 104 113 122 121 134 116 123 108 107 113 109 102 107
53 47 57 63 48 48 47 61 66 58 71 73 71 42 80 77 77 86 78 84 90 80 97 58 105 94 104 98 84 112 101 100 110 118 124 132 133 126 120 114 116 117 109 108 98
53 47 48 56 65 57 52 70 69 51 75 72 78 80 83 76 84 81 90 85 100 95 93 105 103 67 98 112 116 86 85 99 119 128 128 133 140 129 128 120 123 119 112 113 107
60 62 60 56 67 60 69 68 53 73 80 70 78 84 84 88 90 85 93 94 68 92 108 79 104 70 85 114 113 122 92 122 128 118 123 135 140 131 128 121 126 116 115 107 59
62 63 69 55 65 75 74 73 76 77 72 82 76 72 89 85 92 99 92 101 93 107 103 76 108 79 105 103 83 93 112 128 132 139 136 142 127 141 126 124 122 114 117 108 49
77 70 73 75 74 77 74 80 80 81 84 66 70 89 91 93 90 95 98 102 74 70 103 97 86 98 123 116 114 126 122 137 125 132 135 132 149 142 128 131 117 116 117 112 51
77 73 75 77 73 80 83 85 80 81 84 85 91 93 94 96 94 97 104 105 99 65 108 117 119 73 114 102 88 118 129 130 140 144 145 147 145 148 132 134 120 118 114 70 47
83 77 84 80 85 83 85 89 87 88 91 90 94 94 92 99 98 95 106 98 106 99 114 92 110 120 124 116 100 131 139 141 143 143 131 155 147 145 137 135 121 119 110 42 45
87 76 74 72 90 86 91 63 91 92 89 95 94 89 101 78 76 88 92 85 71 98 90 111 117 113 117 124 87 136 134 140 146 151 145 143 149 144 137 131 122 118 113 42 45
80 94 92 62 69 80 94 78 92 87 91 77 83 87 98 89 88 108 108 103 107 119 122 99 101 130 131 131 121 129 136 145 141 150 152 145 140 139 134 125 120 116 86 38 41
102 99 78 88 81 96 96 98 52 72 96 72 102 104 105 103 106 78 115 110 95 124 125 126 127 128 120 113 119 137 138 145 145 152 152 145 148 137 133 125 120 115 34 37 40
104 102 97 100 102 91 97 84 82 91 80 100 96 107 78 109 94 111 85 119 122 104 123 130 125 129 132 131 129 132 133 142 153 151 142 145 140 131 129 124 118 110 36 36 39
Wind_Direction
13 15 17 5 14 7 6 356 355 19 17 348 348 5 16 346 351 20 10 337 323 301 345 10 355 13 292 346 312 313 300 305 289 280 278 281 279 274 265 258 258 253 246 252 254
12 21 15 335 9 8 20 17 23 18 20 29 339 359 8 5 11 353 5 5 295 14 310 332 12 6 333 357 359 299 330 307 295 298 280 284 276 270 278 264 262 259 249 244 246
356 2 22 359 15 353 12 9 334 19 11 5 14 11 22 19 18 6 355 350 13 352 10 355 11 11 322 1 307 348 347 286 323 297 298 282 276 280 273 268 288 262 259 254 253
43 11 6 10 356 18 10 315 14 7 14 6 6 342 13 354 17 12 350 344 5 358 336 1 344 356 350 357 350 352 342 337 337 296 309 294 288 297 300 280 274 272 283 271 263
341 355 345 9 7 13 1 11 347 357 1 5 2 342 340 6 7 6 11 345 342 353 356 343 340 353 342 350 351 346 349 337 333 325 328 274 325 299 278 286 270 272 278 278 285
335 338 332 1 355 335 353 1 343 358 356 352 359 353 341 347 7 3 344 4 351 1 357 357 350 325 331 350 350 351 344 345 343 337 338 326 321 302 297 298 261 308 304 290 274
348 327 334 320 353 337 329 335 335 350 341 340 350 335 342 4 350 359 1 354 348 353 344 346 351 320 328 345 347 328 343 340 335 328 327 333 321 330 309 307 317 295 308 299 289
322 348 335 328 341 342 336 348 323 338 347 335 342 358 332 345 357 346 351 335 350 349 346 350 346 347 336 345 334 340 310 317 337 315 333 332 321 326 330 315 305 303 306 305 298
323 316 338 335 339 339 326 326 342 344 342 342 333 339 344 330 346 346 324 349 341 345 346 346 340 341 341 342 340 342 334 343 317 339 334 335 336 330 327 323 324 311 307 305 301
330 318 333 336 316 342 330 327 336 337 335 341 331 323 345 339 346 337 346 345 341 341 334 334 338 336 345 320 344 342 340 328 326 338 336 335 334 334 323 326 315 305 304 304 296
304 308 314 315 314 324 314 330 327 326 335 335 323 336 340 336 344 329 339 342 340 339 340 338 341 337 339 338 338 339 342 344 342 342 340 339 338 336 327 322 318 316 311 303 300
309 313 320 310 320 314 319 320 314 322 333 327 331 327 333 331 332 339 338 338 329 334 337 333 341 339 337 341 339 341 342 341 338 339 339 337 335 333 328 325 322 317 309 305 303
309 305 318 306 314 315 312 323 318 326 324 323 327 326 326 333 335 333 330 334 336 337 337 340 339 336 332 339 324 335 336 338 330 342 341 337 333 333 327 326 321 314 312 312 305
304 298 313 307 312 309 317 321 319 324 322 322 322 326 321 325 324 330 331 330 335 331 337 339 336 338 330 340 331 326 338 339 338 339 339 337 335 332 326 326 321 318 318 314 308
309 307 304 305 305 310 307 315 318 323 317 327 328 325 324 324 325 320 331 332 329 334 334 336 332 335 329 339 327 332 332 336 335 320 340 336 336 331 328 327 323 318 320 317 316
300 295 299 309 302 313 303 309 312 313 312 315 318 320 324 320 322 327 329 332 324 327 335 330 332 329 330 332 337 335 332 335 341 338 339 336 336 331 327 330 327 324 321 322 317
301 302 302 296 309 312 313 312 310 310 310 312 316 333 315 317 323 324 327 330 328 329 328 328 326 328 328 335 337 332 336 329 338 339 338 337 337 333 335 331 331 328 325 327 321
302 294 300 290 295 299 301 302 304 307 306 313 310 310 314 319 320 323 323 326 323 323 329 324 323 316 334 331 328 321 316 327 336 336 339 337 335 333 338 335 331 328 331 328 329
281 293 303 303 293 306 305 307 304 306 304 314 312 311 314 314 316 323 318 324 321 323 319 321 325 317 313 330 332 329 324 332 332 338 338 336 337 333 337 336 334 332 332 329 310
295 289 288 298 294 297 295 294 299 303 308 303 307 313 307 314 313 312 318 315 320 316 323 330 327 323 332 326 333 317 329 333 332 334 336 337 334 334 337 334 334 334 333 332 303
287 281 294 288 289 293 289 294 297 296 298 310 303 307 309 308 314 314 317 316 319 315 323 328 320 331 322 326 332 329 333 330 336 335 337 337 337 335 337 335 333 337 334 335 304
277 281 283 281 297 285 299 290 290 291 293 304 305 304 303 303 312 311 310 313 316 319 320 316 318 327 326 334 330 332 331 333 333 333 334 335 335 335 337 337 337 338 334 325 302
278 285 292 284 289 287 289 292 290 295 298 297 300 300 307 306 309 309 309 316 314 313 315 318 324 322 321 325 325 329 328 330 329 332 336 333 333 335 336 337 337 337 334 304 309
279 273 284 286 288 292 290 300 294 297 300 298 301 308 300 314 316 313 314 323 308 317 326 317 323 325 327 327 321 325 329 332 331 331 334 332 334 335 337 338 337 336 335 305 310
281 279 279 289 291 288 283 289 292 298 298 300 303 306 303 308 310 307 310 310 313 313 314 324 319 318 320 322 328 329 330 331 332 331 331 332 334 336 337 337 337 336 332 303 306
268 278 281 286 289 281 278 284 294 297 290 298 290 296 299 303 303 315 305 307 309 310 311 312 315 316 324 330 323 325 330 330 332 332 332 332 333 337 337 337 337 336 306 307 310
268 272 271 274 277 287 281 289 289 293 295 294 294 293 306 300 304 303 309 305 308 315 313 313 316 317 319 322 325 328 329 329 329 331 331 332 335 337 336 336 336 335 308 308 313